Location: Vihti�l�
(61.3833°N, 23.0667°E)
Time: 04:11:46
(UTC+00:00)

COSMO-SKYMED 1 - Pass Details

Date: 29 November 2020
Orbit: 621 x 623 km, 97.9° (Epoch: 19 January)

Event Time Altitude Azimuth Distance (km) Brightness Sun altitude
Rises 05:04:29 0° 218° (SW) 2,902 5.8 -13.2°
Reaches altitude 10° 05:07:36 10° 242° (WSW) 2,001 4.8 -12.9°
Enters shadow 05:08:36 13° 255° (WSW) 1,818 4.5 -12.8°
